CAPE
19 19 32 55 73 131 145 137 145 93 159 107 63 22 72 72 15 0 0 0 6 67 62 0 0 0 163 27 30 36 15 0 0 0 0 0 0 0 0 0 0 40 282 662 756
45 30 32 39 47 113 139 111 143 109 102 131 88 72 47 27 3 0 0 0 0 42 17 0 0 0 132 140 3 17 7 1 0 0 0 0 0 0 0 0 48 173 824 927 836
36 25 16 44 37 104 130 83 109 7 45 15 102 106 75 31 1 0 0 0 0 1 49 0 0 0 108 91 3 0 0 0 0 0 0 0 0 0 0 0 15 41 572 759 794
36 36 33 22 37 87 86 24 57 71 83 39 34 117 48 33 1 0 0 12 19 1 31 1 0 29 34 15 9 6 0 0 2 3 0 0 0 0 0 0 0 12 116 230 618
21 20 14 20 22 87 18 1 4 53 54 90 50 107 10 0 0 0 1 7 77 4 27 15 0 34 1 36 47 2 0 1 14 11 4 0 1 0 0 0 0 165 247 72 223
13 15 7 26 20 28 0 0 4 21 78 155 170 69 8 0 3 7 33 1 4 6 52 50 0 3 31 51 55 0 2 0 0 0 0 0 0 4 0 0 28 50 178 266 230
20 10 7 17 3 0 0 0 19 10 89 168 236 67 1 0 0 0 0 0 21 22 22 29 0 6 1 11 41 19 15 0 0 0 0 0 5 0 0 0 0 0 0 0 32
11 14 4 11 19 0 0 0 6 19 132 213 182 67 0 0 0 0 0 0 0 14 29 37 13 0 0 17 25 21 9 14 0 1 0 0 0 0 0 0 0 0 0 0 0
11 9 8 5 0 0 0 0 1 23 69 118 70 0 0 0 0 0 0 0 0 0 10 36 27 5 5 27 28 38 0 0 0 0 0 0 0 0 0 0 0 0 0 0 0
10 4 3 1 0 0 0 0 0 0 0 12 5 0 0 0 0 9 7 0 4 34 7 24 29 2 0 3 0 0 0 0 0 0 0 0 0 0 0 0 0 0 0 0 0
9 1 3 0 0 0 0 0 0 0 0 0 0 0 0 0 9 4 0 0 15 12 12 29 3 0 0 6 0 0 0 0 0 0 0 0 0 0 0 0 0 0 0 0 0
6 6 4 0 0 0 0 0 0 0 0 0 2 1 0 0 3 0 0 0 14 0 18 22 5 0 0 13 0 0 0 0 0 0 0 0 0 0 0 0 0 0 0 0 0
5 7 3 0 0 0 0 0 0 0 0 2 3 0 0 5 1 0 1 1 3 0 4 8 4 0 0 1 6 0 0 0 0 0 0 0 0 0 0 0 0 0 0 0 0
1 4 2 1 0 0 0 0 0 0 0 1 1 3 11 0 4 0 28 2 12 0 1 2 0 2 4 0 2 3 0 0 0 0 0 0 0 0 0 0 0 0 0 0 0
1 2 0 2 0 0 0 0 0 0 0 0 0 0 29 4 14 2 0 17 0 0 1 0 0 0 5 0 0 3 0 0 0 0 0 0 0 0 0 0 0 0 0 0 0
2 0 0 0 0 0 1 0 0 0 0 0 0 6 12 4 13 21 3 0 11 8 0 0 0 0 0 0 5 2 0 0 0 0 0 0 0 0 0 0 0 0 0 0 0
0 0 0 0 0 0 0 0 0 0 0 0 0 4 2 4 9 0 0 3 0 2 0 0 0 0 0 0 0 16 0 2 0 0 0 0 0 0 0 0 0 0 0 0 0
0 0 0 0 0 0 0 0 0 0 0 0 0 0 1 4 0 2 6 0 0 0 0 0 0 0 0 0 0 0 0 0 0 0 0 0 0 0 0 0 0 0 0 0 0
0 0 0 0 0 0 0 0 0 0 0 0 0 0 2 2 0 5 0 0 0 0 0 0 0 0 0 0 0 0 4 0 0 0 0 0 0 0 0 0 0 0 0 0 0
0 0 0 0 0 0 0 0 0 0 0 0 0 0 0 2 0 0 0 0 0 0 0 0 0 0 0 0 0 0 0 0 0 0 0 0 0 0 0 0 0 0 0 0 0
0 0 0 0 0 0 0 0 0 0 0 0 0 0 0 0 0 0 0 0 0 0 0 0 0 2 3 2 1 1 0 0 0 0 0 0 0 0 0 0 0 0 0 0 0
0 0 0 0 0 0 0 0 0 0 0 0 0 0 0 0 0 0 0 0 0 0 0 0 0 3 0 0 1 1 0 0 0 0 0 0 0 0 0 0 0 0 0 0 0
0 0 0 0 0 0 0 0 0 0 0 0 0 0 0 0 0 0 0 0 0 0 0 0 0 0 0 0 1 0 0 1 0 0 0 0 0 0 0 0 0 0 0 0 0
0 0 0 0 0 0 0 0 1 0 0 0 0 0 0 0 0 0 0 0 0 0 0 0 0 0 0 0 0 0 0 0 0 0 0 0 0 0 0 0 0 0 0 0 0
0 0 0 0 0 0 0 0 0 1 0 0 0 0 0 0 0 0 0 0 0 0 0 0 0 0 0 0 0 0 0 0 0 0 0 0 0 0 0 0 0 0 0 0 0
0 0 0 0 0 0 0 0 0 1 0 0 0 0 0 0 0 0 0 0 0 0 0 0 0 0 0 0 0 0 0 0 0 0 0 0 0 0 0 0 0 0 0 0 0
0 0 0 0 0 0 0 0 0 0 2 5 4 0 0 0 1 0 0 0 0 0 0 0 0 0 0 0 0 0 0 0 0 0 0 0 0 0 0 0 0 0 0 0 0
CIN
-1 -1 -1 0 0 0 0 0 0 -8 -6 0 -3 -11 -4 -4 -5 0 0 0 -73 -28 -18 0 0 0 -12 -35 -55 -25 -3 0 0 0 -3 0 0 0 0 0 0 -109 -86 -78 -62
0 -1 0 -1 0 0 0 0 -2 -6 -4 -1 -2 -2 -7 -10 -7 0 0 0 0 -41 -16 0 0 0 -2 -3 -19 -27 -3 -2 0 0 0 0 0 0 0 0 -77 -67 -89 -73 -63
-1 -1 -1 -1 -1 0 0 0 -4 -14 -11 -28 -5 -4 -9 -11 -5 0 0 0 0 -8 -16 0 0 0 -1 -8 -7 0 0 0 0 0 0 0 0 0 0 -5 -72 -60 -65 -68 -49
-1 -1 -1 -2 -6 -2 -1 -12 -5 -5 -4 -17 -18 -9 -16 -13 -3 -1 0 -10 -29 -18 -17 -2 0 -27 -12 -3 -8 -36 0 -9 -2 -18 0 0 0 0 0 0 0 -84 -101 -103 -58
0 -1 -1 -1 0 0 -1 0 -54 -13 -10 -9 -17 -10 -27 0 0 0 -5 -14 -2 -47 -15 -3 0 -5 -2 -10 -6 -20 0 -15 -25 -33 -20 -2 -6 0 0 0 0 -114 -106 -108 -77
0 -1 -2 0 0 -2 -4 0 -91 -45 -5 -1 -10 -31 -41 0 -7 -15 -23 -10 -10 -20 -9 -8 0 -6 -13 -12 -4 0 -29 0 0 0 0 0 0 -3 0 0 -99 -101 -88 -94 -86
-1 0 -2 0 0 0 0 0 -52 -105 -28 -10 -13 -60 -10 0 0 0 0 -2 -19 -10 -8 -21 0 -29 -2 -22 -18 -29 -15 -1 0 0 0 0 -19 0 0 0 0 0 0 0 -127
0 0 0 0 0 0 0 0 -88 -61 -17 -11 -50 -92 0 0 0 0 -5 0 0 -25 -16 -20 -22 0 0 -17 -17 -19 -35 -5 0 -38 0 0 0 0 0 0 0 0 0 0 0
-1 0 0 0 0 0 0 0 -11 -62 -46 -23 -68 0 0 0 0 0 0 0 0 0 -34 -27 -30 -19 -6 -6 -4 -9 0 0 0 0 0 0 0 0 0 0 0 0 0 0 0
-1 0 0 0 0 0 0 0 0 0 0 -36 -48 0 0 0 0 -13 -31 0 -19 -29 -4 -1 -5 -4 0 -6 0 0 0 0 0 0 0 0 0 0 0 0 0 0 0 0 0
-1 -1 0 0 0 0 0 0 0 0 0 0 0 0 0 0 -39 -10 0 0 -53 -30 0 0 0 0 0 -6 0 0 0 0 0 0 0 -58 0 0 0 0 0 0 0 0 0
-1 -1 0 0 0 0 0 0 0 0 0 0 -5 -1 0 0 -3 0 0 0 -24 0 -4 0 0 0 0 -4 -2 0 0 0 0 0 0 0 0 0 0 0 0 0 0 0 0
-1 -1 0 0 0 0 0 0 0 0 0 0 -1 0 -9 -19 -2 0 -2 -3 -1 0 0 0 -2 -2 0 -1 -10 0 0 0 0 0 0 0 0 0 0 0 0 0 0 0 0
-1 0 0 0 0 0 0 0 0 0 0 0 0 -8 -5 0 -2 0 -10 -25 -2 0 0 -1 -1 -5 -2 0 -10 -7 0 0 0 0 0 0 0 0 0 0 0 0 0 0 0
-1 0 0 0 0 0 0 -1 0 0 0 0 0 -6 -3 -1 -4 -1 -1 -6 0 0 0 0 -1 -1 -3 0 0 -13 0 0 0 0 0 0 0 0 0 0 0 0 0 0 0
0 0 0 0 0 0 -5 0 0 0 0 0 0 0 -1 0 0 -1 -1 0 -13 -1 0 0 0 0 0 0 -18 -34 0 0 0 0 0 0 0 0 0 0 0 0 0 0 0
0 0 0 0 0 0 0 0 0 0 0 0 0 0 0 -1 -2 0 0 0 -2 -3 0 -1 0 0 0 0 0 -20 -1 -7 -2 -14 0 0 0 0 0 0 0 0 0 0 0
0 0 0 0 0 0 0 0 0 0 0 0 0 -1 0 0 0 0 -1 0 0 0 0 0 0 0 0 0 0 -1 0 0 -9 0 0 0 0 0 0 0 0 0 0 0 0
0 0 0 0 0 0 0 0 0 0 0 0 0 0 -2 0 -1 -3 -1 0 0 0 0 0 0 0 0 0 0 -1 -5 0 0 0 0 0 0 0 0 0 0 0 0 0 0
0 0 0 0 0 0 0 0 0 0 0 0 0 0 0 -3 -2 0 0 0 0 0 0 0 0 0 0 0 0 0 0 0 0 0 0 0 0 0 0 0 0 0 0 0 0
0 0 0 0 0 0 0 0 0 0 0 0 0 0 -2 0 0 0 0 0 0 -16 0 0 0 0 0 0 0 0 0 0 0 0 0 0 0 0 0 0 0 0 0 0 0
0 0 0 0 0 0 0 0 0 0 0 0 0 0 0 0 0 0 0 0 0 0 0 0 0 0 0 -1 -2 -1 0 0 0 0 0 0 0 0 0 0 0 0 0 0 0
0 0 0 0 0 0 0 0 0 0 0 0 0 0 0 0 0 0 0 0 0 0 0 0 0 0 0 0 0 0 0 0 0 0 0 0 0 0 0 0 0 0 0 0 0
0 0 0 0 0 0 0 0 -2 0 0 0 0 0 0 0 0 0 0 0 0 0 0 0 0 0 0 0 0 0 0 0 0 0 0 0 0 0 0 0 0 0 0 0 0
0 0 0 0 0 0 0 0 -2 -3 0 0 0 0 0 0 0 0 0 0 0 0 0 0 0 0 0 0 0 0 0 0 0 0 0 0 0 0 0 0 0 0 0 0 0
0 0 0 0 0 0 0 0 0 -19 -3 0 -1 0 0 0 -1 0 0 0 0 0 0 0 0 0 0 0 0 0 0 0 0 0 0 0 0 0 0 0 0 0 0 0 0
0 0 0 0 0 0 0 0 0 0 -17 -11 -11 0 0 0 -29 0 0 0 0 0 0 0 0 0 0 0 0 0 0 0 0 0 0 0 0 0 0 0 0 0 0 0 0
Wind_Speed
30 31 35 33 30 25 20 24 26 25 24 24 26 27 26 25 25 25 31 28 28 26 22 21 24 22 23 28 24 30 35 48 48 42 33 24 24 22 21 19 16 18 16 11 9
33 35 35 34 29 20 16 20 19 21 21 21 21 22 23 24 27 32 28 28 34 30 23 24 26 23 25 26 31 34 38 42 37 36 31 27 29 27 20 23 18 13 12 11 10
35 36 37 35 28 20 14 21 18 18 20 20 19 20 21 22 28 32 28 30 36 32 27 24 23 24 25 27 28 36 50 38 36 34 31 30 31 28 30 26 21 17 14 14 11
35 38 38 33 26 21 16 22 19 18 18 18 17 17 18 20 29 20 24 28 38 35 30 22 23 25 23 33 30 35 35 38 25 27 34 34 31 31 27 25 23 17 15 15 15
35 38 37 29 23 19 18 19 20 19 19 18 16 15 16 22 24 23 28 23 28 34 35 26 26 25 24 30 32 31 37 32 32 25 27 37 38 34 29 22 21 17 17 16 16
35 37 35 30 21 18 18 19 19 19 19 18 17 13 14 21 17 15 17 16 23 32 33 26 28 24 24 28 30 30 28 32 33 37 29 28 32 34 27 20 13 15 18 17 17
33 34 33 33 28 23 19 20 20 19 18 18 16 13 14 17 17 20 16 15 21 30 35 29 23 27 21 23 25 19 32 27 39 36 36 28 30 31 27 19 16 18 16 15 18
30 31 32 34 29 24 22 20 20 19 18 17 15 14 16 17 19 19 16 17 19 21 29 29 22 28 22 17 23 24 25 36 34 36 33 30 39 34 29 25 23 22 22 23 20
26 25 27 30 27 23 21 18 17 16 16 16 14 15 15 17 15 16 16 20 21 20 24 25 22 26 23 21 25 28 36 40 31 30 30 35 36 34 31 31 31 27 26 25 25
22 19 20 21 22 19 19 20 19 20 18 17 10 13 14 17 18 14 13 16 23 21 23 25 24 27 24 24 33 33 32 33 33 27 31 38 40 30 32 34 37 33 31 31 30
19 13 12 14 17 17 20 22 24 23 20 18 14 13 16 17 17 15 14 18 23 25 28 26 25 30 27 21 18 20 25 30 27 24 28 36 39 38 33 33 34 37 35 33 31
16 8 7 9 13 17 24 26 26 21 24 18 18 17 14 14 13 15 16 21 25 30 25 25 28 26 23 22 19 18 22 27 26 27 29 34 41 37 41 38 32 30 33 33 30
15 7 3 7 9 18 22 21 18 20 24 21 20 20 18 14 13 17 18 19 23 28 25 26 24 21 23 24 22 19 22 26 23 23 28 30 41 42 40 36 36 35 31 29 28
14 6 3 4 12 15 17 17 17 18 27 26 22 20 23 22 12 18 18 18 22 25 20 19 17 20 20 25 22 23 21 22 18 24 33 24 42 37 39 42 40 38 34 28 26
14 9 6 10 14 17 15 15 15 19 36 13 21 20 20 25 27 17 19 18 22 16 19 24 22 19 21 24 23 23 21 20 23 21 24 27 36 36 32 40 39 36 33 28 23
16 12 14 18 13 15 16 17 18 25 35 22 19 21 24 25 24 25 20 20 20 17 13 15 17 18 19 17 20 21 18 15 16 19 34 28 33 39 35 38 35 33 30 28 22
15 16 16 17 18 18 19 19 22 28 16 20 22 24 19 23 25 23 22 21 18 20 16 15 18 18 19 19 21 19 16 23 27 31 37 21 30 39 28 32 33 29 26 24 22
17 16 17 16 19 21 21 19 27 21 22 16 17 19 21 21 21 28 27 15 17 18 16 18 19 22 19 20 18 17 17 22 30 31 31 22 36 34 29 35 32 23 19 19 19
19 18 20 18 15 20 18 24 21 17 18 19 14 21 21 21 24 22 23 19 19 22 16 19 20 21 18 18 17 17 21 19 22 20 25 27 31 37 29 31 26 19 18 18 18
21 20 21 19 19 20 21 20 18 17 17 17 18 18 20 21 22 21 21 24 21 14 12 11 15 20 21 21 23 20 21 19 20 24 30 29 31 31 27 26 24 22 19 17 17
23 21 21 19 19 22 21 18 16 13 14 15 16 16 13 10 10 14 19 21 11 6 14 10 14 15 17 24 25 23 22 23 19 18 25 29 28 25 30 25 22 21 18 18 19
24 26 21 18 24 21 20 16 15 16 16 15 14 16 15 14 14 13 20 18 17 4 19 16 12 15 21 24 26 27 25 18 19 21 20 23 29 23 25 22 22 19 16 16 17
25 24 23 21 25 23 18 14 13 16 17 17 16 15 17 17 15 14 15 12 14 13 3 9 15 14 18 19 17 21 21 18 20 19 23 26 22 21 19 17 18 16 15 15 17
27 31 25 25 23 22 21 15 13 14 17 15 17 18 17 18 18 16 17 13 13 15 15 15 15 18 17 18 14 18 13 15 16 15 20 24 28 23 18 12 15 15 13 13 13
31 32 27 30 25 25 19 15 14 12 15 18 18 17 20 20 20 21 17 16 17 18 17 17 18 16 20 18 16 18 19 13 13 12 10 39 40 34 6 7 11 11 12 13 16
31 30 28 27 26 25 23 20 18 15 16 17 21 23 24 21 21 23 18 17 17 16 17 19 19 17 21 19 21 26 22 18 11 17 28 31 34 19 8 14 9 12 13 13 15
26 25 27 29 29 28 25 23 17 19 18 15 20 24 24 22 19 19 19 19 17 15 15 17 16 17 21 20 23 33 29 14 18 16 13 15 15 16 13 14 9 6 7 11 16
Wind_Direction
14 8 3 359 357 357 357 347 334 320 311 298 284 277 274 265 263 262 253 252 249 251 256 243 242 244 242 233 234 226 228 229 227 230 227 247 251 260 266 245 254 257 252 233 229
14 10 6 3 3 6 10 3 358 334 322 315 302 281 273 265 260 254 259 255 242 242 249 237 235 237 235 234 230 229 231 227 233 230 233 246 251 257 265 247 248 249 246 231 235
15 12 8 7 9 16 27 10 13 358 324 325 310 288 276 266 255 251 258 252 238 237 242 240 235 231 232 232 232 229 232 234 238 235 238 245 252 260 260 248 240 236 235 236 233
17 15 13 14 19 28 42 21 22 15 9 347 331 299 277 261 246 245 268 260 236 230 233 234 230 226 231 226 230 229 232 230 238 240 236 241 255 256 264 251 245 240 235 241 238
21 20 21 24 27 43 50 45 36 45 41 25 331 300 279 253 249 260 269 263 227 221 223 228 224 224 231 231 228 235 230 231 234 236 239 237 240 247 258 258 248 237 239 242 244
26 27 30 31 49 66 64 50 41 31 40 42 23 348 284 248 261 277 276 247 224 219 220 225 225 225 233 231 229 237 241 235 236 234 239 234 240 243 251 258 239 237 241 246 248
32 34 39 42 54 71 82 66 42 36 36 38 36 329 282 255 263 275 266 245 230 221 221 224 230 223 236 234 235 247 235 239 233 235 233 236 233 238 240 251 244 243 245 250 253
36 39 44 47 57 72 80 86 81 76 56 49 334 271 272 250 263 266 255 244 232 227 224 224 233 224 234 246 233 241 239 231 237 232 235 237 238 238 236 249 248 251 251 253 259
39 45 49 53 63 73 79 88 99 106 111 107 278 265 273 265 263 270 250 234 226 225 221 224 229 226 232 235 231 236 231 229 238 236 239 237 242 241 247 251 251 253 254 257 258
43 49 54 59 66 73 77 86 95 101 108 113 167 220 256 265 256 253 252 235 218 215 219 216 223 224 229 228 229 230 238 236 238 240 242 241 243 254 253 254 252 252 255 256 260
46 54 59 63 67 72 77 81 79 81 91 94 112 145 250 256 241 235 242 226 216 217 209 212 219 218 224 230 245 242 242 242 246 250 248 248 249 251 255 256 254 250 253 257 261
46 55 62 74 75 76 77 75 76 85 80 85 97 114 178 243 241 232 231 216 210 209 224 220 226 225 227 230 241 244 244 250 256 255 255 254 251 254 251 254 256 256 254 256 259
46 54 70 91 95 83 77 80 91 84 77 84 94 99 119 207 238 222 217 213 210 212 224 217 229 224 226 230 237 250 250 251 258 263 260 262 258 255 255 258 257 256 259 258 257
44 53 98 103 102 87 77 84 89 92 73 70 84 98 104 130 207 206 210 216 211 219 217 222 228 225 230 233 237 246 258 261 266 265 257 262 254 257 255 254 254 255 256 260 258
45 55 95 96 86 72 75 88 90 87 53 83 82 109 122 123 156 199 210 220 207 215 229 230 232 222 233 236 238 248 263 262 273 268 268 266 260 262 260 253 253 254 253 257 258
41 58 65 56 78 70 75 79 88 69 57 81 92 108 113 124 148 159 208 214 209 224 224 225 230 234 241 242 240 252 262 276 283 276 262 267 262 263 259 256 259 256 253 252 254
42 57 61 56 48 49 56 64 59 55 96 86 92 98 130 130 138 152 186 205 219 213 226 232 238 246 244 246 248 254 256 264 267 263 265 279 267 263 267 260 259 257 249 249 250
43 59 58 56 32 17 38 61 49 72 76 109 108 108 113 144 148 147 170 208 223 232 233 240 244 239 253 250 250 250 256 264 264 267 273 280 266 269 270 260 260 257 243 245 251
46 53 47 51 61 25 48 46 55 72 76 72 116 97 108 124 138 153 171 230 229 219 248 247 253 246 254 256 254 258 256 274 282 290 284 282 282 271 271 261 254 246 243 246 253
41 45 41 48 51 40 46 52 56 69 61 55 46 63 81 90 128 139 145 184 244 267 278 273 262 252 253 255 256 265 263 264 267 277 281 288 282 272 264 259 248 243 246 248 254
38 42 41 49 48 43 44 48 49 66 62 60 36 337 328 303 221 167 146 138 120 272 265 274 276 267 259 253 252 257 264 256 265 286 290 290 286 279 261 255 249 246 246 250 256
39 33 39 51 34 40 40 44 31 28 30 36 28 337 322 306 297 302 210 227 221 336 240 253 283 267 259 260 260 252 256 255 266 275 291 296 278 288 268 257 251 249 251 258 263
38 39 40 40 29 28 30 34 30 3 360 353 349 334 310 300 306 301 278 320 272 272 344 278 279 276 269 275 276 263 260 261 274 285 278 279 288 290 288 267 258 256 260 264 268
36 27 34 35 34 25 18 25 24 7 337 342 325 313 311 304 297 302 289 305 299 284 281 283 287 279 279 282 288 272 266 247 254 266 280 275 276 281 292 285 265 265 268 267 271
34 29 33 20 22 17 15 16 13 12 342 322 316 310 297 298 297 287 296 291 285 282 283 287 289 293 283 289 289 282 271 255 244 247 236 244 238 261 274 277 266 268 271 271 274
30 28 27 23 20 18 17 12 4 355 339 325 303 295 291 292 292 287 291 293 295 289 290 289 296 299 288 291 287 277 281 277 237 271 214 269 255 287 279 282 276 268 276 280 283
29 29 26 20 17 15 14 7 360 349 328 318 305 297 291 290 297 297 296 296 302 298 291 294 297 298 291 294 288 273 274 263 275 271 225 251 218 298 281 191 211 248 273 281 287